Time,TemperatureF,DewpointF,PressureIn,WindDirection,WindDirectionDegrees,WindSpeedMPH,WindSpeedGustMPH,Humidity,HourlyPrecipIn,Conditions,Clouds,dailyrainin,SoftwareType,DateUTC
2013-08-20 00:01:00,62.7,60.0,29.99,NW,306,0.0,0.0,91,0.00,,,0.00,LWC V2.00 B2112,2013-08-20 04:01:00,
2013-08-20 00:06:00,62.5,60.1,29.99,NW,306,0.0,0.0,92,0.00,,,0.00,LWC V2.00 B2112,2013-08-20 04:06:00,
2013-08-20 00:11:00,62.4,60.0,29.99,NW,306,0.0,0.0,92,0.00,,,0.00,LWC V2.00 B2112,2013-08-20 04:11:00,
2013-08-20 00:16:00,62.3,59.9,29.99,NW,306,0.0,0.0,92,0.00,,,0.00,LWC V2.00 B2112,2013-08-20 04:16:00,
2013-08-20 00:21:00,62.1,59.7,29.99,NW,306,0.0,0.0,92,0.00,,,0.00,LWC V2.00 B2112,2013-08-20 04:21:00,
2013-08-20 00:26:00,62.0,59.6,29.99,NW,306,0.0,0.0,92,0.00,,,0.00,LWC V2.00 B2112,2013-08-20 04:26:00,
2013-08-20 00:31:00,61.8,59.8,29.99,NW,306,0.0,0.0,93,0.00,,,0.00,LWC V2.00 B2112,2013-08-20 04:31:00,
2013-08-20 00:36:00,61.7,59.7,29.99,NW,306,0.0,0.0,93,0.00,,,0.00,LWC V2.00 B2112,2013-08-20 04:36:00,
2013-08-20 00:41:00,61.5,59.5,29.99,NW,306,0.0,0.0,93,0.00,,,0.00,LWC V2.00 B2112,2013-08-20 04:41:00,
2013-08-20 00:46:00,61.4,59.7,29.99,NW,306,0.0,0.0,94,0.00,,,0.00,LWC V2.00 B2112,2013-08-20 04:46:00,
2013-08-20 00:51:00,61.3,59.6,29.99,NW,306,0.0,0.0,94,0.00,,,0.00,LWC V2.00 B2112,2013-08-20 04:51:00,
2013-08-20 00:56:00,61.2,59.5,29.99,NW,306,0.0,0.0,94,0.00,,,0.00,LWC V2.00 B2112,2013-08-20 04:56:00,
2013-08-20 01:01:00,61.1,59.4,29.99,NW,306,0.0,0.0,94,0.00,,,0.00,LWC V2.00 B2112,2013-08-20 05:01:00,
2013-08-20 01:06:00,61.0,59.3,29.99,NW,306,0.0,0.0,94,0.00,,,0.00,LWC V2.00 B2112,2013-08-20 05:06:00,
2013-08-20 01:11:00,60.9,59.2,29.99,NW,306,0.0,0.0,94,0.00,,,0.00,LWC V2.00 B2112,2013-08-20 05:11:00,
2013-08-20 01:16:00,60.8,59.1,29.99,NW,306,0.0,0.0,94,0.00,,,0.00,LWC V2.00 B2112,2013-08-20 05:16:00,
2013-08-20 01:21:00,60.7,59.0,29.99,NW,306,0.0,0.0,94,0.00,,,0.00,LWC V2.00 B2112,2013-08-20 05:21:00,
2013-08-20 01:26:00,60.6,58.9,30.00,NW,306,0.0,0.0,94,0.00,,,0.00,LWC V2.00 B2112,2013-08-20 05:26:00,
2013-08-20 01:31:00,60.5,58.8,30.00,NW,306,0.0,0.0,94,0.00,,,0.00,LWC V2.00 B2112,2013-08-20 05:31:00,
2013-08-20 01:36:00,60.4,58.7,30.00,NW,306,0.0,0.0,94,0.00,,,0.00,LWC V2.00 B2112,2013-08-20 05:36:00,
2013-08-20 01:41:00,60.4,58.7,30.00,NW,306,0.0,0.0,94,0.00,,,0.00,LWC V2.00 B2112,2013-08-20 05:41:00,
2013-08-20 01:46:00,60.3,58.6,30.00,NW,306,0.0,0.0,94,0.00,,,0.00,LWC V2.00 B2112,2013-08-20 05:46:00,
2013-08-20 01:51:00,60.2,58.8,30.00,NW,306,0.0,0.0,95,0.00,,,0.00,LWC V2.00 B2112,2013-08-20 05:51:00,
2013-08-20 01:56:00,60.1,58.4,30.00,NW,306,0.0,0.0,94,0.00,,,0.00,LWC V2.00 B2112,2013-08-20 05:56:00,
2013-08-20 02:01:00,60.0,58.6,30.00,NW,306,0.0,0.0,95,0.00,,,0.00,LWC V2.00 B2112,2013-08-20 06:01:00,
2013-08-20 02:06:00,60.0,58.6,30.00,NW,306,0.0,0.0,95,0.00,,,0.00,LWC V2.00 B2112,2013-08-20 06:06:00,
2013-08-20 02:11:00,60.0,58.6,30.00,NW,306,0.0,0.0,95,0.00,,,0.00,LWC V2.00 B2112,2013-08-20 06:11:00,
2013-08-20 02:16:00,59.9,58.5,30.00,NW,306,0.0,0.0,95,0.00,,,0.00,LWC V2.00 B2112,2013-08-20 06:16:00,
2013-08-20 02:21:00,59.9,58.5,30.00,NW,306,0.0,0.0,95,0.00,,,0.00,LWC V2.00 B2112,2013-08-20 06:21:00,
2013-08-20 02:26:00,59.8,58.4,30.00,NW,306,0.0,0.0,95,0.00,,,0.00,LWC V2.00 B2112,2013-08-20 06:26:00,
2013-08-20 02:31:00,59.8,58.4,30.00,NW,306,0.0,0.0,95,0.00,,,0.00,LWC V2.00 B2112,2013-08-20 06:31:00,
2013-08-20 02:36:00,59.7,58.3,30.00,NW,306,0.0,0.0,95,0.00,,,0.00,LWC V2.00 B2112,2013-08-20 06:36:00,
2013-08-20 02:41:00,59.5,58.1,30.00,NW,306,0.0,0.0,95,0.00,,,0.00,LWC V2.00 B2112,2013-08-20 06:41:00,
2013-08-20 02:46:00,59.3,57.6,30.00,NW,306,0.0,0.0,94,0.00,,,0.00,LWC V2.00 B2112,2013-08-20 06:46:00,
2013-08-20 02:51:00,59.1,57.4,30.00,NW,306,0.0,0.0,94,0.00,,,0.00,LWC V2.00 B2112,2013-08-20 06:51:00,
2013-08-20 02:56:00,58.9,57.2,30.00,NW,306,0.0,0.0,94,0.00,,,0.00,LWC V2.00 B2112,2013-08-20 06:56:00,
2013-08-20 03:01:00,58.8,57.4,30.00,NW,306,0.0,0.0,95,0.00,,,0.00,LWC V2.00 B2112,2013-08-20 07:01:00,
2013-08-20 03:06:00,58.8,57.4,30.00,NW,306,0.0,0.0,95,0.00,,,0.00,LWC V2.00 B2112,2013-08-20 07:06:00,
2013-08-20 03:11:00,58.7,57.3,30.00,NW,306,0.0,0.0,95,0.00,,,0.00,LWC V2.00 B2112,2013-08-20 07:11:00,
2013-08-20 03:16:00,58.7,57.3,30.00,NW,306,0.0,0.0,95,0.00,,,0.00,LWC V2.00 B2112,2013-08-20 07:16:00,
2013-08-20 03:21:00,-999.0,-99.9,-100.00,North,-999,-999.0,0.0,-999,-99.99,,,0.00,LWC V2.00 B2112,2013-08-20 07:21:00,
2013-08-20 03:26:00,58.7,57.3,30.00,NW,306,0.0,0.0,95,0.00,,,0.00,LWC V2.00 B2112,2013-08-20 07:26:00,
2013-08-20 03:31:00,58.6,57.5,30.00,NW,306,0.0,0.0,96,0.00,,,0.00,LWC V2.00 B2112,2013-08-20 07:31:00,
2013-08-20 03:36:00,58.4,57.0,30.00,North,5,0.0,0.0,95,0.00,,,0.00,LWC V2.00 B2112,2013-08-20 07:36:00,
2013-08-20 03:41:00,58.2,56.8,30.00,North,5,0.0,0.0,95,0.00,,,0.00,LWC V2.00 B2112,2013-08-20 07:41:00,
2013-08-20 03:46:00,58.0,56.6,30.00,North,5,0.0,0.0,95,0.00,,,0.00,LWC V2.00 B2112,2013-08-20 07:46:00,
2013-08-20 03:51:00,58.0,56.9,30.00,North,5,0.0,0.0,96,0.00,,,0.00,LWC V2.00 B2112,2013-08-20 07:51:00,
2013-08-20 03:56:00,58.0,56.9,30.00,North,5,0.0,0.0,96,0.00,,,0.00,LWC V2.00 B2112,2013-08-20 07:56:00,
2013-08-20 04:01:00,58.0,56.9,30.00,North,5,0.0,0.0,96,0.00,,,0.00,LWC V2.00 B2112,2013-08-20 08:01:00,
2013-08-20 04:06:00,58.0,56.9,30.00,North,5,0.0,0.0,96,0.00,,,0.00,LWC V2.00 B2112,2013-08-20 08:06:00,
2013-08-20 04:11:00,57.9,56.8,30.01,North,5,0.0,0.0,96,0.00,,,0.00,LWC V2.00 B2112,2013-08-20 08:11:00,
2013-08-20 04:16:00,57.9,56.8,30.01,North,5,0.0,0.0,96,0.00,,,0.00,LWC V2.00 B2112,2013-08-20 08:16:00,
2013-08-20 04:21:00,57.9,56.8,30.01,North,5,0.0,0.0,96,0.00,,,0.00,LWC V2.00 B2112,2013-08-20 08:21:00,
2013-08-20 04:26:00,57.8,56.7,30.01,North,5,0.0,0.0,96,0.00,,,0.00,LWC V2.00 B2112,2013-08-20 08:26:00,
2013-08-20 04:31:00,57.8,56.7,30.01,North,5,0.0,0.0,96,0.00,,,0.00,LWC V2.00 B2112,2013-08-20 08:31:00,
2013-08-20 04:36:00,57.8,56.7,30.01,North,5,0.0,0.0,96,0.00,,,0.00,LWC V2.00 B2112,2013-08-20 08:36:00,
2013-08-20 04:41:00,57.8,56.7,30.01,North,5,0.0,0.0,96,0.00,,,0.00,LWC V2.00 B2112,2013-08-20 08:41:00,
2013-08-20 04:46:00,57.7,56.6,30.01,North,5,0.0,0.0,96,0.00,,,0.00,LWC V2.00 B2112,2013-08-20 08:46:00,
2013-08-20 04:51:00,57.5,56.1,30.01,North,5,0.0,0.0,95,0.00,,,0.00,LWC V2.00 B2112,2013-08-20 08:51:00,
2013-08-20 04:56:00,57.3,55.9,30.01,North,5,0.0,0.0,95,0.00,,,0.00,LWC V2.00 B2112,2013-08-20 08:56:00,
2013-08-20 05:01:00,57.2,55.8,30.01,North,5,0.0,0.0,95,0.00,,,0.00,LWC V2.00 B2112,2013-08-20 09:01:00,
2013-08-20 05:06:00,57.1,56.0,30.01,North,5,0.0,0.0,96,0.00,,,0.00,LWC V2.00 B2112,2013-08-20 09:06:00,
2013-08-20 05:11:00,57.1,56.0,30.02,North,5,0.0,0.0,96,0.00,,,0.00,LWC V2.00 B2112,2013-08-20 09:11:00,
2013-08-20 05:16:00,57.0,55.9,30.02,North,5,0.0,1.0,96,0.00,,,0.00,LWC V2.00 B2112,2013-08-20 09:16:00,
2013-08-20 05:21:00,57.0,55.9,30.02,North,5,0.0,0.0,96,0.00,,,0.00,LWC V2.00 B2112,2013-08-20 09:21:00,
2013-08-20 05:26:00,57.0,55.9,30.02,North,5,0.0,0.0,96,0.00,,,0.00,LWC V2.00 B2112,2013-08-20 09:26:00,
2013-08-20 05:31:00,56.9,55.8,30.02,North,5,0.0,0.0,96,0.00,,,0.00,LWC V2.00 B2112,2013-08-20 09:31:00,
2013-08-20 05:36:00,56.8,55.7,30.02,North,5,0.0,0.0,96,0.00,,,0.00,LWC V2.00 B2112,2013-08-20 09:36:00,
2013-08-20 05:41:00,56.7,55.6,30.02,North,5,0.0,0.0,96,0.00,,,0.00,LWC V2.00 B2112,2013-08-20 09:41:00,
2013-08-20 05:46:00,56.6,55.5,30.02,NNW,330,0.0,0.0,96,0.00,,,0.00,LWC V2.00 B2112,2013-08-20 09:46:00,
2013-08-20 05:51:00,56.6,55.5,30.03,NNW,330,0.0,0.0,96,0.00,,,0.00,LWC V2.00 B2112,2013-08-20 09:51:00,
2013-08-20 05:56:00,56.5,55.4,30.03,NNW,330,0.0,0.0,96,0.00,,,0.00,LWC V2.00 B2112,2013-08-20 09:56:00,
2013-08-20 06:01:00,56.5,55.4,30.03,NNW,330,0.0,0.0,96,0.00,,,0.00,LWC V2.00 B2112,2013-08-20 10:01:00,
2013-08-20 06:06:00,56.5,55.4,30.03,NNW,330,0.0,0.0,96,0.00,,,0.00,LWC V2.00 B2112,2013-08-20 10:06:00,
2013-08-20 06:11:00,56.5,55.4,30.03,NNW,330,0.0,0.0,96,0.00,,,0.00,LWC V2.00 B2112,2013-08-20 10:11:00,
2013-08-20 06:16:00,56.2,55.1,30.03,NNW,330,0.0,0.0,96,0.00,,,0.00,LWC V2.00 B2112,2013-08-20 10:16:00,
2013-08-20 06:21:00,56.2,55.1,30.04,NNW,330,0.0,0.0,96,0.00,,,0.00,LWC V2.00 B2112,2013-08-20 10:21:00,
2013-08-20 06:26:00,56.3,55.2,30.04,NNW,330,0.0,0.0,96,0.00,,,0.00,LWC V2.00 B2112,2013-08-20 10:26:00,
2013-08-20 06:31:00,56.6,55.5,30.04,NNW,332,0.0,1.0,96,0.00,,,0.00,LWC V2.00 B2112,2013-08-20 10:31:00,
2013-08-20 06:36:00,56.8,56.0,30.04,NNW,339,0.0,0.0,97,0.00,,,0.00,LWC V2.00 B2112,2013-08-20 10:36:00,
2013-08-20 06:41:00,57.0,55.9,30.04,NNW,340,0.0,0.0,96,0.00,,,0.00,LWC V2.00 B2112,2013-08-20 10:41:00,
2013-08-20 06:46:00,57.1,56.0,30.05,NNW,340,0.0,0.0,96,0.00,,,0.00,LWC V2.00 B2112,2013-08-20 10:46:00,
2013-08-20 06:51:00,57.3,56.2,30.05,NNW,340,0.0,0.0,96,0.00,,,0.00,LWC V2.00 B2112,2013-08-20 10:51:00,
2013-08-20 06:56:00,57.3,55.9,30.05,NNW,340,0.0,0.0,95,0.00,,,0.00,LWC V2.00 B2112,2013-08-20 10:56:00,
2013-08-20 07:01:00,57.3,55.9,30.05,NNW,340,0.0,0.0,95,0.00,,,0.00,LWC V2.00 B2112,2013-08-20 11:01:00,
2013-08-20 07:06:00,57.5,56.1,30.05,NNW,340,0.0,0.0,95,0.00,,,0.00,LWC V2.00 B2112,2013-08-20 11:06:00,
2013-08-20 07:11:00,57.8,56.1,30.05,North,5,0.0,0.0,94,0.00,,,0.00,LWC V2.00 B2112,2013-08-20 11:11:00,
2013-08-20 07:16:00,58.0,56.0,30.06,North,5,0.0,0.0,93,0.00,,,0.00,LWC V2.00 B2112,2013-08-20 11:16:00,
2013-08-20 07:21:00,58.2,56.2,30.06,North,5,0.0,0.0,93,0.00,,,0.00,LWC V2.00 B2112,2013-08-20 11:21:00,
2013-08-20 07:26:00,58.7,56.7,30.06,North,5,0.0,0.0,93,0.00,,,0.00,LWC V2.00 B2112,2013-08-20 11:26:00,
2013-08-20 07:31:00,59.3,57.3,30.06,North,5,0.0,0.0,93,0.00,,,0.00,LWC V2.00 B2112,2013-08-20 11:31:00,
2013-08-20 07:36:00,59.9,57.6,30.06,North,5,0.0,0.0,92,0.00,,,0.00,LWC V2.00 B2112,2013-08-20 11:36:00,
2013-08-20 07:41:00,60.4,57.5,30.06,East,87,0.0,1.0,90,0.00,,,0.00,LWC V2.00 B2112,2013-08-20 11:41:00,
2013-08-20 07:46:00,60.8,58.2,30.06,East,87,0.0,1.0,91,0.00,,,0.00,LWC V2.00 B2112,2013-08-20 11:46:00,
2013-08-20 07:51:00,61.2,58.2,30.06,East,87,0.0,1.0,90,0.00,,,0.00,LWC V2.00 B2112,2013-08-20 11:51:00,
2013-08-20 07:56:00,61.5,58.5,30.06,East,90,0.0,0.0,90,0.00,,,0.00,LWC V2.00 B2112,2013-08-20 11:56:00,
2013-08-20 08:01:00,61.8,58.8,30.06,East,90,0.0,1.0,90,0.00,,,0.00,LWC V2.00 B2112,2013-08-20 12:01:00,
2013-08-20 08:06:00,62.3,59.3,30.06,East,101,0.0,0.0,90,0.00,,,0.00,LWC V2.00 B2112,2013-08-20 12:06:00,
2013-08-20 08:11:00,62.7,59.1,30.06,ESE,112,0.0,1.0,88,0.00,,,0.00,LWC V2.00 B2112,2013-08-20 12:11:00,
2013-08-20 08:16:00,63.1,59.5,30.07,ESE,112,1.0,2.0,88,0.00,,,0.00,LWC V2.00 B2112,2013-08-20 12:16:00,
2013-08-20 08:21:00,63.4,59.8,30.07,ESE,105,0.0,1.0,88,0.00,,,0.00,LWC V2.00 B2112,2013-08-20 12:21:00,
2013-08-20 08:26:00,63.7,59.8,30.06,ESE,110,0.0,2.0,87,0.00,,,0.00,LWC V2.00 B2112,2013-08-20 12:26:00,
2013-08-20 08:31:00,63.9,59.9,30.06,ESE,110,0.0,0.0,87,0.00,,,0.00,LWC V2.00 B2112,2013-08-20 12:31:00,
2013-08-20 08:36:00,64.6,60.3,30.06,ESE,103,1.0,2.0,86,0.00,,,0.00,LWC V2.00 B2112,2013-08-20 12:36:00,
2013-08-20 08:41:00,65.1,60.5,30.07,ESE,103,1.0,1.0,85,0.00,,,0.00,LWC V2.00 B2112,2013-08-20 12:41:00,
2013-08-20 08:46:00,65.7,61.1,30.06,ESE,107,0.0,1.0,85,0.00,,,0.00,LWC V2.00 B2112,2013-08-20 12:46:00,
2013-08-20 08:51:00,66.2,61.2,30.07,ENE,71,1.0,2.0,84,0.00,,,0.00,LWC V2.00 B2112,2013-08-20 12:51:00,
2013-08-20 08:56:00,66.8,61.1,30.06,ESE,122,0.0,2.0,82,0.00,,,0.00,LWC V2.00 B2112,2013-08-20 12:56:00,
2013-08-20 09:01:00,67.4,61.7,30.06,ESE,122,0.0,1.0,82,0.00,,,0.00,LWC V2.00 B2112,2013-08-20 13:01:00,
2013-08-20 09:06:00,68.0,61.6,30.06,ESE,120,0.0,0.0,80,0.00,,,0.00,LWC V2.00 B2112,2013-08-20 13:06:00,
2013-08-20 09:11:00,69.0,61.8,30.06,ESE,113,1.0,2.0,78,0.00,,,0.00,LWC V2.00 B2112,2013-08-20 13:11:00,
2013-08-20 09:16:00,69.8,61.9,30.06,SE,130,2.0,2.0,76,0.00,,,0.00,LWC V2.00 B2112,2013-08-20 13:16:00,
2013-08-20 09:21:00,69.5,61.6,30.06,SE,130,1.0,2.0,76,0.00,,,0.00,LWC V2.00 B2112,2013-08-20 13:21:00,
2013-08-20 09:26:00,69.7,62.5,30.07,SE,129,0.0,1.0,78,0.00,,,0.00,LWC V2.00 B2112,2013-08-20 13:26:00,
2013-08-20 09:31:00,70.3,62.4,30.07,ESE,104,1.0,2.0,76,0.00,,,0.00,LWC V2.00 B2112,2013-08-20 13:31:00,
2013-08-20 09:36:00,70.8,62.5,30.07,ESE,105,1.0,1.0,75,0.00,,,0.00,LWC V2.00 B2112,2013-08-20 13:36:00,
2013-08-20 09:41:00,71.1,62.4,30.07,ESE,104,0.0,3.0,74,0.00,,,0.00,LWC V2.00 B2112,2013-08-20 13:41:00,
2013-08-20 09:46:00,71.7,63.3,30.07,SSE,163,1.0,3.0,75,0.00,,,0.00,LWC V2.00 B2112,2013-08-20 13:46:00,
2013-08-20 09:51:00,72.2,63.0,30.07,SSE,159,2.0,3.0,73,0.00,,,0.00,LWC V2.00 B2112,2013-08-20 13:51:00,
2013-08-20 09:56:00,72.4,63.6,30.07,SSW,196,2.0,3.0,74,0.00,,,0.00,LWC V2.00 B2112,2013-08-20 13:56:00,
2013-08-20 10:01:00,73.0,63.4,30.07,SSE,148,0.0,3.0,72,0.00,,,0.00,LWC V2.00 B2112,2013-08-20 14:01:00,
2013-08-20 10:06:00,73.4,63.8,30.07,ESE,123,0.0,3.0,72,0.00,,,0.00,LWC V2.00 B2112,2013-08-20 14:06:00,
2013-08-20 10:11:00,73.8,63.8,30.07,SE,125,0.0,1.0,71,0.00,,,0.00,LWC V2.00 B2112,2013-08-20 14:11:00,
2013-08-20 10:16:00,74.4,63.5,30.06,SE,140,1.0,1.0,69,0.00,,,0.00,LWC V2.00 B2112,2013-08-20 14:16:00,
2013-08-20 10:21:00,75.0,63.7,30.06,ESE,123,2.0,3.0,68,0.00,,,0.00,LWC V2.00 B2112,2013-08-20 14:21:00,
2013-08-20 10:26:00,75.3,63.6,30.07,SE,132,0.0,3.0,67,0.00,,,0.00,LWC V2.00 B2112,2013-08-20 14:26:00,
2013-08-20 10:31:00,75.8,63.6,30.06,ESE,102,1.0,2.0,66,0.00,,,0.00,LWC V2.00 B2112,2013-08-20 14:31:00,
2013-08-20 10:36:00,76.6,63.9,30.06,East,90,1.0,1.0,65,0.00,,,0.00,LWC V2.00 B2112,2013-08-20 14:36:00,
2013-08-20 10:41:00,77.7,65.0,30.06,SSE,148,1.0,2.0,65,0.00,,,0.00,LWC V2.00 B2112,2013-08-20 14:41:00,
2013-08-20 10:46:00,78.5,64.4,30.07,SE,143,1.0,1.0,62,0.00,,,0.00,LWC V2.00 B2112,2013-08-20 14:46:00,
2013-08-20 10:51:00,79.0,64.4,30.06,ESE,110,1.0,4.0,61,0.00,,,0.00,LWC V2.00 B2112,2013-08-20 14:51:00,
2013-08-20 10:56:00,79.1,64.5,30.06,SE,131,1.0,2.0,61,0.00,,,0.00,LWC V2.00 B2112,2013-08-20 14:56:00,
2013-08-20 11:01:00,80.0,64.4,30.06,SE,129,2.0,3.0,59,0.00,,,0.00,LWC V2.00 B2112,2013-08-20 15:01:00,
2013-08-20 11:06:00,80.1,64.5,30.06,SE,144,1.0,2.0,59,0.00,,,0.00,LWC V2.00 B2112,2013-08-20 15:06:00,
2013-08-20 11:11:00,80.5,65.8,30.06,South,171,2.0,4.0,61,0.00,,,0.00,LWC V2.00 B2112,2013-08-20 15:11:00,
2013-08-20 11:16:00,80.9,64.2,30.06,SE,146,2.0,4.0,57,0.00,,,0.00,LWC V2.00 B2112,2013-08-20 15:16:00,
2013-08-20 11:21:00,80.9,64.2,30.06,East,79,1.0,1.0,57,0.00,,,0.00,LWC V2.00 B2112,2013-08-20 15:21:00,
2013-08-20 11:26:00,81.7,64.4,30.06,SE,132,1.0,2.0,56,0.00,,,0.00,LWC V2.00 B2112,2013-08-20 15:26:00,
2013-08-20 11:31:00,82.4,64.6,30.06,SE,133,0.0,2.0,55,0.00,,,0.00,LWC V2.00 B2112,2013-08-20 15:31:00,
2013-08-20 11:36:00,82.7,64.3,30.05,SE,130,5.0,6.0,54,0.00,,,0.00,LWC V2.00 B2112,2013-08-20 15:36:00,
2013-08-20 11:41:00,81.9,64.1,30.05,SE,130,1.0,6.0,55,0.00,,,0.00,LWC V2.00 B2112,2013-08-20 15:41:00,
2013-08-20 11:46:00,82.1,63.8,30.05,ESE,109,1.0,3.0,54,0.00,,,0.00,LWC V2.00 B2112,2013-08-20 15:46:00,
2013-08-20 11:51:00,82.8,65.0,30.05,ESE,119,2.0,4.0,55,0.00,,,0.00,LWC V2.00 B2112,2013-08-20 15:51:00,
2013-08-20 11:56:00,83.2,63.7,30.05,ESE,115,3.0,4.0,52,0.00,,,0.00,LWC V2.00 B2112,2013-08-20 15:56:00,
2013-08-20 12:01:00,83.1,63.6,30.05,ESE,109,2.0,3.0,52,0.00,,,0.00,LWC V2.00 B2112,2013-08-20 16:01:00,
2013-08-20 12:06:00,83.5,63.4,30.05,ENE,71,3.0,3.0,51,0.00,,,0.00,LWC V2.00 B2112,2013-08-20 16:06:00,
2013-08-20 12:11:00,84.2,64.1,30.05,ESE,111,0.0,2.0,51,0.00,,,0.00,LWC V2.00 B2112,2013-08-20 16:11:00,
2013-08-20 12:16:00,85.1,63.8,30.05,ESE,106,0.0,2.0,49,0.00,,,0.00,LWC V2.00 B2112,2013-08-20 16:16:00,
2013-08-20 12:21:00,85.4,64.0,30.05,SSE,150,3.0,4.0,49,0.00,,,0.00,LWC V2.00 B2112,2013-08-20 16:21:00,
2013-08-20 12:26:00,84.9,64.2,30.05,East,82,1.0,3.0,50,0.00,,,0.00,LWC V2.00 B2112,2013-08-20 16:26:00,
2013-08-20 12:31:00,84.9,64.2,30.05,SE,142,0.0,3.0,50,0.00,,,0.00,LWC V2.00 B2112,2013-08-20 16:31:00,
2013-08-20 12:36:00,85.2,63.8,30.05,ENE,73,2.0,2.0,49,0.00,,,0.00,LWC V2.00 B2112,2013-08-20 16:36:00,
2013-08-20 12:41:00,85.4,64.6,30.05,SE,142,1.0,3.0,50,0.00,,,0.00,LWC V2.00 B2112,2013-08-20 16:41:00,
2013-08-20 12:46:00,85.9,63.9,30.05,ENE,62,2.0,3.0,48,0.00,,,0.00,LWC V2.00 B2112,2013-08-20 16:46:00,
2013-08-20 12:51:00,86.0,63.4,30.05,NE,54,1.0,2.0,47,0.00,,,0.00,LWC V2.00 B2112,2013-08-20 16:51:00,
2013-08-20 12:56:00,86.5,63.8,30.04,East,96,1.0,2.0,47,0.00,,,0.00,LWC V2.00 B2112,2013-08-20 16:56:00,
2013-08-20 13:01:00,87.5,64.7,30.04,East,86,0.0,4.0,47,0.00,,,0.00,LWC V2.00 B2112,2013-08-20 17:01:00,
2013-08-20 13:06:00,86.3,64.3,30.04,NW,313,1.0,4.0,48,0.00,,,0.00,LWC V2.00 B2112,2013-08-20 17:06:00,
2013-08-20 13:11:00,85.6,65.4,30.04,SE,142,3.0,4.0,51,0.00,,,0.00,LWC V2.00 B2112,2013-08-20 17:11:00,
2013-08-20 13:16:00,85.4,64.6,30.04,SE,143,2.0,3.0,50,0.00,,,0.00,LWC V2.00 B2112,2013-08-20 17:16:00,
2013-08-20 13:21:00,85.9,65.6,30.04,SE,143,0.0,1.0,51,0.00,,,0.00,LWC V2.00 B2112,2013-08-20 17:21:00,
2013-08-20 13:26:00,86.1,63.5,30.04,ESE,117,1.0,5.0,47,0.00,,,0.00,LWC V2.00 B2112,2013-08-20 17:26:00,
2013-08-20 13:31:00,86.1,62.9,30.04,ENE,59,2.0,3.0,46,0.00,,,0.00,LWC V2.00 B2112,2013-08-20 17:31:00,
2013-08-20 13:36:00,86.0,64.0,30.04,East,86,0.0,3.0,48,0.00,,,0.00,LWC V2.00 B2112,2013-08-20 17:36:00,
2013-08-20 13:41:00,86.3,63.0,30.04,ESE,109,0.0,4.0,46,0.00,,,0.00,LWC V2.00 B2112,2013-08-20 17:41:00,
2013-08-20 13:46:00,86.5,63.8,30.03,SE,136,0.0,3.0,47,0.00,,,0.00,LWC V2.00 B2112,2013-08-20 17:46:00,
2013-08-20 13:51:00,86.5,64.4,30.03,NE,55,1.0,3.0,48,0.00,,,0.00,LWC V2.00 B2112,2013-08-20 17:51:00,
2013-08-20 13:56:00,86.5,63.8,30.03,ESE,115,0.0,4.0,47,0.00,,,0.00,LWC V2.00 B2112,2013-08-20 17:56:00,
2013-08-20 14:01:00,86.8,63.5,30.03,ESE,111,0.0,3.0,46,0.00,,,0.00,LWC V2.00 B2112,2013-08-20 18:01:00,
2013-08-20 14:07:00,87.1,65.0,30.03,ESE,113,1.0,3.0,48,0.00,,,0.00,LWC V2.00 B2112,2013-08-20 18:07:00,
2013-08-20 14:12:00,87.1,65.6,30.03,SW,231,1.0,4.0,49,0.00,,,0.00,LWC V2.00 B2112,2013-08-20 18:12:00,
2013-08-20 14:17:00,86.0,66.3,30.03,WSW,250,0.0,2.0,52,0.00,,,0.00,LWC V2.00 B2112,2013-08-20 18:17:00,
2013-08-20 14:22:00,85.6,68.1,30.03,SSE,153,3.0,3.0,56,0.00,,,0.00,LWC V2.00 B2112,2013-08-20 18:22:00,
2013-08-20 14:27:00,85.5,64.7,30.02,SE,138,0.0,2.0,50,0.00,,,0.00,LWC V2.00 B2112,2013-08-20 18:27:00,
2013-08-20 14:32:00,-999.0,-99.9,-100.00,North,-999,-999.0,4.0,-999,-99.99,,,0.00,LWC V2.00 B2112,2013-08-20 18:32:00,
2013-08-20 14:37:00,85.9,64.5,30.02,SSE,148,2.0,2.0,49,0.00,,,0.00,LWC V2.00 B2112,2013-08-20 18:37:00,
2013-08-20 14:42:00,85.5,62.9,30.02,SE,134,1.0,4.0,47,0.00,,,0.00,LWC V2.00 B2112,2013-08-20 18:42:00,
2013-08-20 14:47:00,85.6,62.4,30.02,NNE,24,0.0,4.0,46,0.00,,,0.00,LWC V2.00 B2112,2013-08-20 18:47:00,
2013-08-20 14:52:00,85.6,62.4,30.02,NNE,24,2.0,6.0,46,0.00,,,0.00,LWC V2.00 B2112,2013-08-20 18:52:00,
2013-08-20 14:57:00,85.6,63.0,30.02,NE,35,4.0,4.0,47,0.00,,,0.00,LWC V2.00 B2112,2013-08-20 18:57:00,
2013-08-20 15:02:00,86.2,63.0,30.02,NW,323,1.0,2.0,46,0.00,,,0.00,LWC V2.00 B2112,2013-08-20 19:02:00,
2013-08-20 15:07:00,86.0,62.1,30.02,NE,44,1.0,2.0,45,0.00,,,0.00,LWC V2.00 B2112,2013-08-20 19:07:00,
2013-08-20 15:12:00,85.5,61.1,30.02,NNE,30,1.0,10.0,44,0.00,,,0.00,LWC V2.00 B2112,2013-08-20 19:12:00,
2013-08-20 15:17:00,85.8,65.0,30.02,West,261,0.0,2.0,50,0.00,,,0.00,LWC V2.00 B2112,2013-08-20 19:17:00,
2013-08-20 15:22:00,86.0,63.4,30.02,NNW,330,1.0,4.0,47,0.00,,,0.00,LWC V2.00 B2112,2013-08-20 19:22:00,
2013-08-20 15:26:00,86.1,65.3,30.02,East,79,0.0,3.0,50,0.00,,,0.00,LWC V2.00 B2112,2013-08-20 19:26:00,
2013-08-20 15:31:00,85.9,63.9,30.02,North,9,2.0,3.0,48,0.00,,,0.00,LWC V2.00 B2112,2013-08-20 19:31:00,
2013-08-20 15:36:00,85.1,62.6,30.02,North,351,3.0,3.0,47,0.00,,,0.00,LWC V2.00 B2112,2013-08-20 19:36:00,
2013-08-20 15:41:00,84.4,61.9,30.02,NNE,13,0.0,7.0,47,0.00,,,0.00,LWC V2.00 B2112,2013-08-20 19:41:00,
2013-08-20 15:46:00,84.8,63.5,30.02,NNE,28,3.0,3.0,49,0.00,,,0.00,LWC V2.00 B2112,2013-08-20 19:46:00,
2013-08-20 15:51:00,84.5,61.4,30.03,NE,53,2.0,7.0,46,0.00,,,0.00,LWC V2.00 B2112,2013-08-20 19:51:00,
2013-08-20 15:56:00,84.1,61.7,30.03,NW,321,1.0,4.0,47,0.00,,,0.00,LWC V2.00 B2112,2013-08-20 19:56:00,
2013-08-20 16:01:00,83.8,61.4,30.03,North,0,0.0,2.0,47,0.00,,,0.00,LWC V2.00 B2112,2013-08-20 20:01:00,
2013-08-20 16:06:00,84.1,62.8,30.02,NNW,346,1.0,4.0,49,0.00,,,0.00,LWC V2.00 B2112,2013-08-20 20:06:00,
2013-08-20 16:11:00,84.2,65.2,30.03,NNE,22,2.0,2.0,53,0.00,,,0.00,LWC V2.00 B2112,2013-08-20 20:11:00,
2013-08-20 16:16:00,84.3,61.8,30.02,NW,317,1.0,4.0,47,0.00,,,0.00,LWC V2.00 B2112,2013-08-20 20:16:00,
2013-08-20 16:21:00,84.5,64.9,30.02,North,350,0.0,2.0,52,0.00,,,0.00,LWC V2.00 B2112,2013-08-20 20:21:00,
2013-08-20 16:26:00,84.2,64.6,30.02,North,11,0.0,0.0,52,0.00,,,0.00,LWC V2.00 B2112,2013-08-20 20:26:00,
2013-08-20 16:31:00,84.6,63.3,30.02,NNE,20,0.0,1.0,49,0.00,,,0.00,LWC V2.00 B2112,2013-08-20 20:31:00,
2013-08-20 16:36:00,84.8,61.1,30.03,NW,310,1.0,1.0,45,0.00,,,0.00,LWC V2.00 B2112,2013-08-20 20:36:00,
2013-08-20 16:41:00,84.6,62.7,30.03,NNE,19,0.0,6.0,48,0.00,,,0.00,LWC V2.00 B2112,2013-08-20 20:41:00,
2013-08-20 16:46:00,84.6,64.4,30.03,NNW,341,1.0,1.0,51,0.00,,,0.00,LWC V2.00 B2112,2013-08-20 20:46:00,
2013-08-20 16:51:00,83.3,64.4,30.03,NW,324,0.0,5.0,53,0.00,,,0.00,LWC V2.00 B2112,2013-08-20 20:51:00,
2013-08-20 16:56:00,-999.0,-99.9,-100.00,North,-999,-999.0,2.0,-999,-99.99,,,0.00,LWC V2.00 B2112,2013-08-20 20:56:00,
2013-08-20 17:01:00,81.6,61.7,30.03,North,350,0.0,3.0,51,0.00,,,0.00,LWC V2.00 B2112,2013-08-20 21:01:00,
2013-08-20 17:06:00,81.2,62.4,30.03,NW,322,0.0,3.0,53,0.00,,,0.00,LWC V2.00 B2112,2013-08-20 21:06:00,
2013-08-20 17:11:00,80.8,62.6,30.03,North,0,1.0,1.0,54,0.00,,,0.00,LWC V2.00 B2112,2013-08-20 21:11:00,
2013-08-20 17:16:00,80.2,64.1,30.03,North,0,0.0,0.0,58,0.00,,,0.00,LWC V2.00 B2112,2013-08-20 21:16:00,
2013-08-20 17:21:00,79.7,64.1,30.03,NW,325,0.0,1.0,59,0.00,,,0.00,LWC V2.00 B2112,2013-08-20 21:21:00,
2013-08-20 17:26:00,79.1,64.5,30.03,NW,323,0.0,1.0,61,0.00,,,0.00,LWC V2.00 B2112,2013-08-20 21:26:00,
2013-08-20 17:31:00,78.6,64.5,30.03,NW,323,0.0,1.0,62,0.00,,,0.00,LWC V2.00 B2112,2013-08-20 21:31:00,
2013-08-20 17:36:00,78.5,62.5,30.04,WNW,292,0.0,1.0,58,0.00,,,0.00,LWC V2.00 B2112,2013-08-20 21:36:00,
2013-08-20 17:41:00,78.5,63.9,30.04,WSW,257,0.0,0.0,61,0.00,,,0.00,LWC V2.00 B2112,2013-08-20 21:41:00,
2013-08-20 17:46:00,78.2,62.7,30.04,SSE,155,0.0,3.0,59,0.00,,,0.00,LWC V2.00 B2112,2013-08-20 21:46:00,
2013-08-20 17:51:00,78.0,63.4,30.04,SW,219,0.0,0.0,61,0.00,,,0.00,LWC V2.00 B2112,2013-08-20 21:51:00,
2013-08-20 17:56:00,77.8,63.3,30.04,NW,318,0.0,1.0,61,0.00,,,0.00,LWC V2.00 B2112,2013-08-20 21:56:00,
2013-08-20 18:01:00,77.6,63.1,30.04,NW,321,0.0,1.0,61,0.00,,,0.00,LWC V2.00 B2112,2013-08-20 22:01:00,
2013-08-20 18:06:00,77.4,62.9,30.04,NNW,346,0.0,2.0,61,0.00,,,0.00,LWC V2.00 B2112,2013-08-20 22:06:00,
2013-08-20 18:11:00,77.1,62.6,30.04,NNW,346,0.0,0.0,61,0.00,,,0.00,LWC V2.00 B2112,2013-08-20 22:11:00,
2013-08-20 18:16:00,76.7,63.6,30.04,NNW,346,0.0,0.0,64,0.00,,,0.00,LWC V2.00 B2112,2013-08-20 22:16:00,
2013-08-20 18:21:00,76.4,61.0,30.04,NNW,346,0.0,1.0,59,0.00,,,0.00,LWC V2.00 B2112,2013-08-20 22:21:00,
2013-08-20 18:26:00,76.2,61.3,30.04,NNW,345,0.0,1.0,60,0.00,,,0.00,LWC V2.00 B2112,2013-08-20 22:26:00,
2013-08-20 18:31:00,75.9,62.4,30.04,NW,312,0.0,0.0,63,0.00,,,0.00,LWC V2.00 B2112,2013-08-20 22:31:00,
2013-08-20 18:36:00,75.6,62.5,30.04,NW,312,0.0,0.0,64,0.00,,,0.00,LWC V2.00 B2112,2013-08-20 22:36:00,
2013-08-20 18:42:00,75.3,62.7,30.04,NW,312,0.0,0.0,65,0.00,,,0.00,LWC V2.00 B2112,2013-08-20 22:42:00,
2013-08-20 18:47:00,75.1,62.1,30.04,North,0,0.0,1.0,64,0.00,,,0.00,LWC V2.00 B2112,2013-08-20 22:47:00,
2013-08-20 18:52:00,74.8,61.3,30.04,North,0,0.0,1.0,63,0.00,,,0.00,LWC V2.00 B2112,2013-08-20 22:52:00,
2013-08-20 18:57:00,74.6,61.6,30.04,NW,309,0.0,0.0,64,0.00,,,0.00,LWC V2.00 B2112,2013-08-20 22:57:00,
2013-08-20 19:02:00,74.3,62.2,30.04,NW,309,0.0,1.0,66,0.00,,,0.00,LWC V2.00 B2112,2013-08-20 23:02:00,
2013-08-20 19:07:00,74.0,61.9,30.04,NW,309,0.0,0.0,66,0.00,,,0.00,LWC V2.00 B2112,2013-08-20 23:07:00,
2013-08-20 19:12:00,73.6,61.5,30.05,NW,309,0.0,1.0,66,0.00,,,0.00,LWC V2.00 B2112,2013-08-20 23:12:00,
2013-08-20 19:17:00,73.4,61.8,30.05,NW,309,0.0,1.0,67,0.00,,,0.00,LWC V2.00 B2112,2013-08-20 23:17:00,
2013-08-20 19:22:00,73.2,61.6,30.05,NW,309,0.0,1.0,67,0.00,,,0.00,LWC V2.00 B2112,2013-08-20 23:22:00,
2013-08-20 19:27:00,73.0,61.0,30.05,NNW,340,0.0,1.0,66,0.00,,,0.00,LWC V2.00 B2112,2013-08-20 23:27:00,
2013-08-20 19:32:00,72.9,61.3,30.05,NW,326,0.0,0.0,67,0.00,,,0.00,LWC V2.00 B2112,2013-08-20 23:32:00,
2013-08-20 19:37:00,72.9,61.3,30.05,NW,322,0.0,0.0,67,0.00,,,0.00,LWC V2.00 B2112,2013-08-20 23:37:00,
2013-08-20 19:42:00,72.7,61.1,30.05,NW,322,0.0,0.0,67,0.00,,,0.00,LWC V2.00 B2112,2013-08-20 23:42:00,
2013-08-20 19:47:00,72.6,61.0,30.05,NW,322,0.0,1.0,67,0.00,,,0.00,LWC V2.00 B2112,2013-08-20 23:47:00,
2013-08-20 19:52:00,72.4,60.8,30.05,WNW,300,0.0,2.0,67,0.00,,,0.00,LWC V2.00 B2112,2013-08-20 23:52:00,
2013-08-20 19:57:00,72.3,60.7,30.05,WNW,300,0.0,0.0,67,0.00,,,0.00,LWC V2.00 B2112,2013-08-20 23:57:00,
2013-08-20 20:02:00,72.2,61.0,30.05,WNW,300,0.0,0.0,68,0.00,,,0.00,LWC V2.00 B2112,2013-08-21 00:02:00,
2013-08-20 20:07:00,71.9,60.8,30.05,WNW,300,0.0,0.0,68,0.00,,,0.00,LWC V2.00 B2112,2013-08-21 00:07:00,
2013-08-20 20:12:00,71.7,60.6,30.05,WNW,298,0.0,0.0,68,0.00,,,0.00,LWC V2.00 B2112,2013-08-21 00:12:00,
2013-08-20 20:17:00,71.5,60.8,30.05,WNW,298,0.0,0.0,69,0.00,,,0.00,LWC V2.00 B2112,2013-08-21 00:17:00,
2013-08-20 20:22:00,71.4,61.1,30.05,WNW,298,0.0,0.0,70,0.00,,,0.00,LWC V2.00 B2112,2013-08-21 00:22:00,
2013-08-20 20:27:00,71.1,61.2,30.05,WNW,298,0.0,0.0,71,0.00,,,0.00,LWC V2.00 B2112,2013-08-21 00:27:00,
2013-08-20 20:32:00,70.9,61.4,30.06,WNW,298,0.0,0.0,72,0.00,,,0.00,LWC V2.00 B2112,2013-08-21 00:32:00,
2013-08-20 20:37:00,70.6,61.1,30.06,WNW,298,0.0,0.0,72,0.00,,,0.00,LWC V2.00 B2112,2013-08-21 00:37:00,
2013-08-20 20:42:00,70.4,60.9,30.06,WNW,298,0.0,0.0,72,0.00,,,0.00,LWC V2.00 B2112,2013-08-21 00:42:00,
2013-08-20 20:47:00,70.2,61.1,30.06,WNW,298,0.0,0.0,73,0.00,,,0.00,LWC V2.00 B2112,2013-08-21 00:47:00,
2013-08-20 20:52:00,70.0,61.3,30.07,WNW,298,0.0,0.0,74,0.00,,,0.00,LWC V2.00 B2112,2013-08-21 00:52:00,
2013-08-20 20:57:00,69.8,61.1,30.07,WNW,298,0.0,0.0,74,0.00,,,0.00,LWC V2.00 B2112,2013-08-21 00:57:00,
2013-08-20 21:02:00,69.6,60.9,30.07,WNW,284,1.0,1.0,74,0.00,,,0.00,LWC V2.00 B2112,2013-08-21 01:02:00,
2013-08-20 21:07:00,69.4,60.7,30.07,WNW,284,0.0,0.0,74,0.00,,,0.00,LWC V2.00 B2112,2013-08-21 01:07:00,
2013-08-20 21:12:00,69.2,60.9,30.07,WNW,284,0.0,0.0,75,0.00,,,0.00,LWC V2.00 B2112,2013-08-21 01:12:00,
2013-08-20 21:17:00,69.0,61.1,30.07,WNW,284,0.0,1.0,76,0.00,,,0.00,LWC V2.00 B2112,2013-08-21 01:17:00,
2013-08-20 21:19:00,68.9,60.6,30.07,WNW,284,0.0,0.0,75,0.00,,,0.00,LWC V2.00 B2112,2013-08-21 01:19:00,
2013-08-20 21:24:00,68.7,60.8,30.07,WNW,284,0.0,0.0,76,0.00,,,0.00,LWC V2.00 B2112,2013-08-21 01:24:00,
2013-08-20 21:29:00,68.6,60.3,30.08,WNW,284,0.0,0.0,75,0.00,,,0.00,LWC V2.00 B2112,2013-08-21 01:29:00,
2013-08-20 21:34:00,68.4,60.9,30.08,WNW,284,0.0,0.0,77,0.00,,,0.00,LWC V2.00 B2112,2013-08-21 01:34:00,
2013-08-20 21:39:00,68.3,61.2,30.08,WNW,284,0.0,0.0,78,0.00,,,0.00,LWC V2.00 B2112,2013-08-21 01:39:00,
2013-08-20 21:44:00,68.0,61.2,30.08,WNW,284,0.0,0.0,79,0.00,,,0.00,LWC V2.00 B2112,2013-08-21 01:44:00,
2013-08-20 21:49:00,67.7,61.3,30.08,WNW,284,0.0,0.0,80,0.00,,,0.00,LWC V2.00 B2112,2013-08-21 01:49:00,
2013-08-20 21:54:00,67.4,61.0,30.08,WNW,284,0.0,0.0,80,0.00,,,0.00,LWC V2.00 B2112,2013-08-21 01:54:00,
2013-08-20 21:59:00,67.2,60.8,30.08,WNW,284,0.0,0.0,80,0.00,,,0.00,LWC V2.00 B2112,2013-08-21 01:59:00,
2013-08-20 22:04:00,67.1,61.1,30.08,WNW,284,0.0,0.0,81,0.00,,,0.00,LWC V2.00 B2112,2013-08-21 02:04:00,
2013-08-20 22:09:00,66.9,60.5,30.08,WNW,284,0.0,0.0,80,0.00,,,0.00,LWC V2.00 B2112,2013-08-21 02:09:00,
2013-08-20 22:14:00,66.8,60.8,30.08,WNW,284,0.0,0.0,81,0.00,,,0.00,LWC V2.00 B2112,2013-08-21 02:14:00,
2013-08-20 22:19:00,66.7,60.7,30.08,WNW,284,0.0,0.0,81,0.00,,,0.00,LWC V2.00 B2112,2013-08-21 02:19:00,
2013-08-20 22:24:00,66.6,60.9,30.08,WNW,284,0.0,0.0,82,0.00,,,0.00,LWC V2.00 B2112,2013-08-21 02:24:00,
2013-08-20 22:29:00,66.1,60.4,30.08,WNW,284,0.0,0.0,82,0.00,,,0.00,LWC V2.00 B2112,2013-08-21 02:29:00,
2013-08-20 22:34:00,65.8,60.5,30.08,WNW,284,0.0,0.0,83,0.00,,,0.00,LWC V2.00 B2112,2013-08-21 02:34:00,
2013-08-20 22:39:00,65.6,60.6,30.08,WNW,284,0.0,0.0,84,0.00,,,0.00,LWC V2.00 B2112,2013-08-21 02:39:00,
2013-08-20 22:44:00,65.4,60.8,30.08,WNW,284,0.0,0.0,85,0.00,,,0.00,LWC V2.00 B2112,2013-08-21 02:44:00,
2013-08-20 22:49:00,65.3,60.7,30.08,WNW,284,0.0,0.0,85,0.00,,,0.00,LWC V2.00 B2112,2013-08-21 02:49:00,
2013-08-20 22:54:00,65.2,60.6,30.08,WNW,284,0.0,0.0,85,0.00,,,0.00,LWC V2.00 B2112,2013-08-21 02:54:00,
2013-08-20 22:59:00,65.0,60.0,30.08,WNW,284,0.0,0.0,84,0.00,,,0.00,LWC V2.00 B2112,2013-08-21 02:59:00,
2013-08-20 23:04:00,64.9,60.3,30.08,WNW,284,0.0,0.0,85,0.00,,,0.00,LWC V2.00 B2112,2013-08-21 03:04:00,
2013-08-20 23:09:00,64.7,60.4,30.08,WNW,284,0.0,0.0,86,0.00,,,0.00,LWC V2.00 B2112,2013-08-21 03:09:00,
2013-08-20 23:14:00,-999.0,-99.9,-100.00,North,-999,-999.0,0.0,-999,-99.99,,,0.00,LWC V2.00 B2112,2013-08-21 03:14:00,
2013-08-20 23:19:00,64.3,60.0,30.09,WNW,284,0.0,0.0,86,0.00,,,0.00,LWC V2.00 B2112,2013-08-21 03:19:00,
2013-08-20 23:24:00,64.2,60.2,30.09,WNW,284,0.0,0.0,87,0.00,,,0.00,LWC V2.00 B2112,2013-08-21 03:24:00,
2013-08-20 23:29:00,64.1,60.1,30.09,WNW,284,0.0,0.0,87,0.00,,,0.00,LWC V2.00 B2112,2013-08-21 03:29:00,
2013-08-20 23:34:00,63.9,59.9,30.09,WNW,284,0.0,0.0,87,0.00,,,0.00,LWC V2.00 B2112,2013-08-21 03:34:00,
2013-08-20 23:39:00,63.8,60.2,30.09,WNW,284,0.0,0.0,88,0.00,,,0.00,LWC V2.00 B2112,2013-08-21 03:39:00,
2013-08-20 23:44:00,63.7,60.1,30.09,WNW,284,0.0,0.0,88,0.00,,,0.00,LWC V2.00 B2112,2013-08-21 03:44:00,
2013-08-20 23:49:00,63.6,60.0,30.09,WNW,284,0.0,0.0,88,0.00,,,0.00,LWC V2.00 B2112,2013-08-21 03:49:00,
2013-08-20 23:54:00,63.5,59.9,30.09,WNW,284,0.0,0.0,88,0.00,,,0.00,LWC V2.00 B2112,2013-08-21 03:54:00,
2013-08-20 23:59:00,63.4,60.1,30.09,WNW,284,0.0,0.0,89,0.00,,,0.00,LWC V2.00 B2112,2013-08-21 03:59:00,